Centralia, IL

12:41 AM CDT on May 30, 2017 (GMT -0500)
Centralia Municipal

Weather History for KENL - October, 2012

Change the Weather History Date:

Wednesday, October 17, 2012

  Actual Average (KSLO) Record (KSLO)
Temperature  
Mean Temperature 64 °F -  
Max Temperature 73 °F 66 °F 86 °F (2016)
Min Temperature 55 °F 44 °F 27 °F (1977)
Degree Days  
Heating Degree Days 1    
Growing Degree Days 14 (Base 50)    
Moisture  
Dew Point 54 °F    
Average Humidity 73    
Maximum Humidity 93    
Minimum Humidity 55    
Precipitation  
Precipitation 1.24 in - - ()
Sea Level Pressure  
Sea Level Pressure 29.57 in    
Wind  
Wind Speed 13 mph (South)    
Max Wind Speed 28 mph    
Max Gust Speed 43 mph    
Visibility 10 miles    
Events Rain , Thunderstorm    
Averages and records for this station are not official NWS values.
T = Trace of Precipitation, MM = Missing Value Source: NWS Daily Summary

Daily Weather History Graph

Daily Weather History Graph

Search for Another Location

Airport or City:

Trip Planner

Search our weather history database for the weather conditions in past years. The results will help you decide how hot, cold, wet, or windy it might be!

Date:

Astronomy

Oct. 17, 2012 Rise Set
Actual Time 7:07 AM CDT 6:14 PM CDT
Civil Twilight 6:41 AM CDT 6:41 PM CDT
Nautical Twilight 6:10 AM CDT 7:12 PM CDT
Astronomical Twilight 5:39 AM CDT 7:42 PM CDT
Moon 9:39 AM CDT (10/17) 7:53 PM CDT (10/17)
Length of Visible Light 12h 00m
Length of Day
11h 06m
Waxing Crescent, 7% of the Moon is Illuminated
Oct 17
Waxing Crescent
Oct 21
First Quarter
Oct 29
Full
Nov 6
Last Quarter
Nov 13
New

Hourly Weather History & Observations

Time (CDT) Temp. Dew Point Humidity Pressure Visibility Wind Dir Wind Speed Gust Speed Precip Events Conditions
12:15 AM 63.1 °F 49.6 °F 61% 29.70 in 10.0 mi South 12.7 mph - N/A   Clear
12:35 AM 62.6 °F 49.5 °F 62% 29.70 in 10.0 mi South 10.4 mph - N/A   Clear
12:55 AM 62.4 °F 49.5 °F 63% 29.70 in 10.0 mi South 11.5 mph - N/A   Clear
1:15 AM 61.9 °F 50.0 °F 65% 29.70 in 10.0 mi South 13.8 mph - N/A   Clear
1:35 AM 61.5 °F 49.8 °F 65% 29.70 in 10.0 mi South 12.7 mph - N/A   Clear
1:55 AM 61.2 °F 49.8 °F 66% 29.70 in 10.0 mi South 11.5 mph - N/A   Clear
2:15 AM 60.8 °F 49.8 °F 67% 29.70 in 10.0 mi South 11.5 mph 18.4 mph N/A   Clear
2:35 AM 59.9 °F 49.8 °F 69% 29.70 in 10.0 mi South 10.4 mph - N/A   Clear
2:55 AM 59.7 °F 50.0 °F 70% 29.69 in 10.0 mi South 9.2 mph 16.1 mph N/A   Clear
3:15 AM 59.0 °F 50.4 °F 73% 29.68 in 10.0 mi South 10.4 mph - N/A   Clear
3:35 AM 59.9 °F 50.9 °F 72% 29.67 in 10.0 mi South 11.5 mph - N/A   Clear
3:55 AM 59.2 °F 51.4 °F 75% 29.67 in 10.0 mi South 9.2 mph - N/A   Clear
4:15 AM 59.7 °F 52.2 °F 76% 29.66 in 10.0 mi South 10.4 mph 17.3 mph N/A   Clear
4:35 AM 59.4 °F 52.0 °F 77% 29.66 in 10.0 mi South 11.5 mph - N/A   Clear
4:55 AM 59.4 °F 52.0 °F 77% 29.66 in 10.0 mi South 10.4 mph - N/A   Scattered Clouds
5:15 AM 59.2 °F 52.0 °F 77% 29.66 in 10.0 mi South 10.4 mph - N/A   Mostly Cloudy
5:35 AM 59.5 °F 52.0 °F 76% 29.66 in 10.0 mi South 10.4 mph - N/A   Scattered Clouds
5:55 AM 59.0 °F 51.8 °F 77% 29.67 in 10.0 mi SSE 10.4 mph - N/A   Scattered Clouds
6:15 AM 57.7 °F 51.4 °F 79% 29.66 in 10.0 mi SSE 10.4 mph - N/A   Clear
6:35 AM 57.2 °F 51.8 °F 82% 29.66 in 10.0 mi SSE 10.4 mph - N/A   Clear
6:55 AM 58.1 °F 51.4 °F 78% 29.65 in 10.0 mi SSE 10.4 mph - N/A   Clear
7:15 AM 58.5 °F 51.3 °F 77% 29.65 in 10.0 mi SSE 12.7 mph 17.3 mph N/A   Clear
7:35 AM 59.0 °F 51.6 °F 76% 29.64 in 10.0 mi SSE 11.5 mph 17.3 mph N/A   Clear
7:55 AM 59.4 °F 51.8 °F 76% 29.64 in 10.0 mi South 13.8 mph 19.6 mph N/A   Clear
8:15 AM 59.9 °F 51.8 °F 75% 29.64 in 10.0 mi South 10.4 mph 18.4 mph N/A   Clear
8:35 AM 60.1 °F 52.0 °F 75% 29.63 in 10.0 mi South 13.8 mph 18.4 mph N/A   Clear
8:55 AM 62.8 °F 53.1 °F 71% 29.63 in 10.0 mi South 13.8 mph 19.6 mph N/A   Clear
9:15 AM 63.7 °F 53.4 °F 69% 29.63 in 10.0 mi South 13.8 mph 21.9 mph N/A   Scattered Clouds
9:35 AM 65.5 °F 54.5 °F 68% 29.63 in 10.0 mi South 24.2 mph 29.9 mph N/A   Scattered Clouds
9:55 AM 65.7 °F 54.9 °F 68% 29.62 in 10.0 mi South 20.7 mph 25.3 mph N/A   Mostly Cloudy
10:15 AM 66.0 °F 55.6 °F 69% 29.62 in 10.0 mi South 20.7 mph 28.8 mph N/A   Mostly Cloudy
10:35 AM 65.7 °F 55.2 °F 69% 29.62 in 10.0 mi South 16.1 mph 24.2 mph N/A   Mostly Cloudy
10:55 AM 65.8 °F 55.4 °F 69% 29.61 in 10.0 mi South 16.1 mph 24.2 mph N/A   Mostly Cloudy
11:15 AM 67.1 °F 55.8 °F 67% 29.60 in 10.0 mi South 20.7 mph 26.5 mph N/A   Overcast
11:35 AM 68.0 °F 55.8 °F 65% 29.60 in 10.0 mi South 23.0 mph 27.6 mph N/A   Overcast
11:55 AM 69.6 °F 56.3 °F 63% 29.59 in 10.0 mi South 18.4 mph 28.8 mph N/A   Overcast
12:15 PM 71.8 °F 56.8 °F 59% 29.58 in 10.0 mi South 25.3 mph 33.4 mph N/A   Overcast
12:35 PM 71.1 °F 55.9 °F 59% 29.57 in 10.0 mi SSW 27.6 mph 33.4 mph N/A   Scattered Clouds
12:55 PM 71.6 °F 55.8 °F 57% 29.57 in 10.0 mi South 23.0 mph 31.1 mph N/A   Mostly Cloudy
1:15 PM 72.9 °F 55.9 °F 55% 29.56 in 10.0 mi South 21.9 mph 31.1 mph N/A   Mostly Cloudy
1:35 PM 72.1 °F 55.6 °F 56% 29.55 in 10.0 mi SSW 23.0 mph 32.2 mph N/A   Overcast
1:55 PM 72.1 °F 55.8 °F 56% 29.54 in 10.0 mi South 19.6 mph 26.5 mph N/A   Overcast
2:15 PM 72.0 °F 55.6 °F 56% 29.54 in 10.0 mi SSW 17.3 mph 27.6 mph N/A   Overcast
2:35 PM 71.6 °F 55.9 °F 58% 29.53 in 10.0 mi SSW 17.3 mph - N/A   Overcast
2:55 PM 71.6 °F 56.3 °F 58% 29.52 in 10.0 mi South 13.8 mph 20.7 mph N/A   Overcast
3:15 PM 71.6 °F 56.5 °F 59% 29.51 in 10.0 mi South 16.1 mph 20.7 mph N/A   Overcast
3:35 PM 71.6 °F 56.5 °F 59% 29.50 in 10.0 mi South 16.1 mph 21.9 mph N/A   Overcast
3:55 PM 71.4 °F 57.0 °F 60% 29.49 in 10.0 mi South 12.7 mph 18.4 mph N/A   Overcast
4:15 PM 72.0 °F 57.2 °F 60% 29.47 in 10.0 mi South 18.4 mph 24.2 mph N/A   Overcast
4:35 PM 72.1 °F 57.2 °F 59% 29.45 in 10.0 mi South 18.4 mph 24.2 mph N/A   Overcast
4:55 PM 68.4 °F 59.2 °F 72% 29.45 in 10.0 mi South 11.5 mph - 0.02 in Rain Light Rain
5:15 PM 67.5 °F 59.4 °F 75% 29.43 in 7.0 mi SSE 10.4 mph - 0.04 in Rain Rain
5:35 PM 67.1 °F 59.7 °F 77% 29.40 in 10.0 mi SE 9.2 mph - 0.06 in Thunderstorm Overcast
5:55 PM 67.5 °F 59.0 °F 74% 29.38 in 10.0 mi SE 10.4 mph - 0.06 in Thunderstorm Overcast
6:15 PM 69.3 °F 57.6 °F 66% 29.35 in 10.0 mi SSE 15.0 mph 19.6 mph N/A Thunderstorm Thunderstorm
6:35 PM 68.4 °F 59.7 °F 74% 29.38 in 10.0 mi West 10.4 mph 17.3 mph N/A Rain , Thunderstorm Light Thunderstorms and Rain
6:55 PM 65.1 °F 61.7 °F 89% 29.40 in 3.0 mi WSW 10.4 mph 25.3 mph 0.26 in Rain , Thunderstorm Heavy Thunderstorms and Rain
7:15 PM 64.6 °F 62.2 °F 92% 29.42 in 1.5 mi SW 13.8 mph - 0.37 in Rain , Thunderstorm Heavy Thunderstorms and Rain
7:35 PM 61.7 °F 58.8 °F 90% 29.47 in 2.0 mi West 10.4 mph 42.6 mph 0.81 in Rain Rain
7:55 PM 59.9 °F 56.7 °F 89% 29.48 in 10.0 mi West 5.8 mph - 0.84 in Rain , Thunderstorm Light Thunderstorms and Rain
8:15 PM 59.2 °F 56.3 °F 90% 29.47 in 10.0 mi NNW 5.8 mph - N/A Rain , Thunderstorm Light Thunderstorms and Rain
8:35 PM 59.2 °F 56.7 °F 91% 29.44 in 10.0 mi East 3.5 mph - N/A   Mostly Cloudy
8:55 PM 59.0 °F 56.7 °F 92% 29.48 in 10.0 mi West 5.8 mph - N/A   Overcast
9:15 PM 59.0 °F 56.8 °F 93% 29.50 in 10.0 mi South 5.8 mph - N/A Rain Light Rain
9:35 PM 59.0 °F 56.7 °F 92% 29.51 in 10.0 mi SSW 6.9 mph - 0.01 in Rain Light Rain
9:55 PM 59.0 °F 56.8 °F 93% 29.53 in 4.0 mi SW 9.2 mph - 0.03 in Rain Rain
10:15 PM 57.4 °F 53.4 °F 87% 29.53 in 5.0 mi NW 15.0 mph 21.9 mph 0.03 in Rain Light Rain
10:35 PM 57.2 °F 51.8 °F 82% 29.53 in 10.0 mi NW 8.1 mph - N/A   Overcast
10:55 PM 57.2 °F 52.2 °F 83% 29.54 in 10.0 mi WNW 12.7 mph - 0.03 in   Overcast
11:15 PM 57.2 °F 50.9 °F 79% 29.56 in 10.0 mi WNW 11.5 mph - N/A   Mostly Cloudy
11:35 PM 56.3 °F 50.7 °F 82% 29.55 in 10.0 mi West 5.8 mph - N/A   Scattered Clouds
11:55 PM 55.8 °F 51.4 °F 85% 29.56 in 10.0 mi West 6.9 mph - N/A   Clear